Location: Finkenbach
(49.5340°N, 8.9188°E)
Time: 20:50:55
(UTC+00:00)

Daily predictions for brighter satellites

Satellite Brightness Start Highest point End
(mag) Time Altitude Azimuth Time Altitude Azimuth Time Altitude Azimuth
Cosmos 1328 Rocket 3.7 20:12:19 10° S 20:16:42 84° W 20:21:08 10° N
SL-8 R/B 3.9 20:15:58 10° W 20:20:39 57° SSW 20:25:20 10° ESE
Okean-O 3.0 20:16:23 10° S 20:20:44 64° WSW 20:25:06 10° NNW
Terra 2.1 20:16:13 10° S 20:20:54 70° WSW 20:25:38 10° NNW
IRS-1C Rocket 4.2 20:16:54 10° SSE 20:22:06 68° ENE 20:27:20 10° N
USA 215 4.3 20:18:10 10° SSE 20:24:01 35° SW 20:29:54 10° WNW
Cosmos 1802 Rocket 4.2 20:18:01 10° N 20:24:25 63° ENE 20:30:44 10° SSE
Cosmos 1758 3.2 20:20:51 10° N 20:24:36 84° W 20:28:18 10° S
Cosmos 1470 Rocket 3.6 20:23:58 10° N 20:28:20 84° W 20:32:42 10° S
Cosmos 2297 Rocket 3.2 20:23:30 10° SW 20:29:01 53° NW 20:34:36 10° NNE
Meteor 1-15 Rocket 4.2 20:25:30 10° N 20:31:09 77° ENE 20:36:42 10° SSE
Meteor 1-22 Rocket 4.2 20:29:10 10° NNW 20:34:34 85° W 20:40:06 10° S
Cosmos 2016 Rocket 4.2 20:29:09 10° N 20:35:28 64° ENE 20:41:46 10° SSE
Cosmos 1455 3.4 20:35:09 10° NW 20:37:28 25° W 20:39:45 10° SSW
GP-B 4.2 20:33:39 10° NNE 20:37:30 29° E 20:41:10 11° SE
NOSS 3-4 (A) 4.1 20:33:24 10° WSW 20:38:44 56° NW 20:44:43 10° NE
NOSS 3-4 (C) 4.1 20:33:30 10° WSW 20:38:50 56° NW 20:44:49 10° NE
Cosmos 1437 Rocket 2.5 20:35:23 10° S 20:38:52 63° E 20:42:27 10° NNE
Cosmos 1933 Rocket 3.7 20:35:02 10° N 20:39:24 63° ENE 20:43:39 10° SSE
Lacrosse 4 Rocket 2.4 20:37:26 10° NW 20:41:23 39° WSW 20:45:20 10° S
Cosmos 1515 Rocket 3.6 20:43:03 10° S 20:47:29 89° ESE 20:51:57 10° N
Cosmos 921 Rocket 4.2 20:47:51 10° SW 20:51:59 45° WNW 20:56:13 10° N
PSLV R/B 3.3 20:49:06 12° SSE 20:52:06 81° ENE 20:55:24 10° NNW
SL-4 R/B 2.5 20:48:52 10° SW 20:52:43 38° SSE 20:56:31 10° ENE
Cosmos 1869 Rocket 3.8 20:49:33 10° N 20:53:54 58° ENE 20:57:38 13° SSE
SL-16 R/B 2.4 20:48:36 10° NNW 20:54:15 70° WSW 20:59:33 12° SSE
Cosmos 2263 Rocket 2.2 20:51:18 10° SSW 20:56:56 72° ESE 21:02:38 10° NNE
Cosmos 2227 Rocket 2.7 20:52:19 10° SW 20:57:54 64° WNW 21:03:34 10° NNE
Ariane Rocket 3.1 20:53:47 10° SSE 20:58:52 81° WSW 21:03:59 10° NNW
ATLAS CENTAUR R/B 3.5 21:01:15 10° WNW 21:03:29 15° WSW 21:05:41 10° SSW
Meteor 1-16 Rocket 4.4 21:02:57 10° N 21:08:48 78° ENE 21:13:57 14° SSE
Okean O Rocket 4.1 21:07:43 10° SW 21:10:28 16° W 21:13:12 10° NW
Cosmos 2344 4.1 21:02:55 10° NW 21:10:45 72° NE 21:21:15 10° SE
Cosmos 2233 Rocket 4.1 21:05:16 10° N 21:11:38 82° E 21:17:17 13° SSE
Cosmos 1943 3.4 21:06:42 10° NNW 21:12:24 66° ENE 21:17:07 15° SE
Cosmos 2292 Rocket 4.0 21:12:37 18° SE 21:13:48 23° E 21:16:13 10° NE
Meteor 1-23 Rocket 4.3 21:09:15 10° SSW 21:14:49 81° WNW 21:20:30 10° N
RESURS DK-1 3.4 21:11:09 10° SW 21:15:00 46° NW 21:18:54 10° NNE
ATLAS 2AS CENTAUR R/B 4.4 21:12:27 12° SE 21:15:04 14° ESE 21:18:32 10° ENE
USA 305 3.7 21:14:44 10° W 21:18:25 43° NNW 21:21:28 10° ENE
Okean 2 3.7 21:16:11 17° SSE 21:18:53 46° E 21:22:38 10° NNE
Cosmos 1892 3.7 21:18:28 17° ESE 21:19:28 20° E 21:21:46 10° NE
Cosmos 1269 Rocket 4.0 21:14:17 10° SSW 21:19:32 83° ESE 21:24:52 10° NNE
USA 290 2.2 21:17:01 10° SSW 21:20:12 84° WNW 21:23:26 10° NNE
DELTA 2 DEB (DPAF) 4.3 21:19:04 10° NNE 21:22:47 41° E 21:25:11 19° SSE
COBE Rocket 4.0 21:18:00 10° NNE 21:23:00 60° E 21:27:01 15° S
Cosmos 1953 2.2 21:19:18 10° NNW 21:23:04 79° W 21:25:49 18° S
Meteor 1-21 4.3 21:18:14 10° SSW 21:23:56 86° W 21:29:46 10° NNE
SPOT 3 Rocket 4.3 21:19:08 10° S 21:24:04 46° W 21:29:03 10° NNW
Meteor 2-16 Rocket 4.4 21:19:25 11° S 21:25:16 75° E 21:31:22 10° NNE
Cosmos 2219 3.4 21:21:47 10° SSW 21:27:32 81° WNW 21:33:20 10° NNE
USA 307 3.1 21:31:29 19° S 21:33:16 31° SE 21:36:40 10° ENE
Cosmos 1603 4.2 21:28:04 10° NNW 21:33:36 53° NE 21:38:04 16° SE
CZ-4C R/B 4.0 21:31:43 10° NE 21:34:34 27° E 21:35:40 22° SE
Cosmos 2082 3.7 21:28:58 10° SSW 21:34:41 90° SE 21:40:28 10° NNE
IRIDIUM 103 4.5 21:33:12 18° SSE 21:37:01 61° E 21:42:10 10° N
USA 59 Rocket 1.2 21:35:29 10° NNW 21:38:33 31° NE 21:42:21 10° ESE
Cosmos 1763 Rocket 3.5 21:39:52 10° NNW 21:45:01 75° ENE 21:48:27 21° SSE
CZ-2C R/B 4.5 21:43:09 10° NNE 21:47:23 37° E 21:49:46 22° SSE
Okean 3 3.3 21:45:02 17° S 21:48:06 85° W 21:52:12 10° N
ARIANE 5 R/B 3.3 21:46:14 20° SE 21:49:04 46° ENE 21:53:21 10° N
Geosat 3.9 21:46:18 10° NNE 21:51:20 77° ESE 21:56:18 10° SSW
MetOp-A 4.1 21:51:30 21° SE 21:54:28 54° ENE 21:58:46 10° N
IRIDIUM 106 4.3 21:51:28 19° S 21:55:17 85° E 22:00:33 10° N
Cosmos 2227 4.3 21:51:47 16° S 21:56:13 60° ESE 22:01:45 10° NE
Cosmos 1844 Rocket 2.9 22:01:37 20° S 22:05:28 55° ESE 22:11:01 10° NE
Cosmos 1140 Rocket 4.0 22:01:43 10° SW 22:06:46 58° WNW 22:11:50 10° NNE
NOSS 3-1 (C) 4.2 22:02:15 10° NW 22:09:20 65° SW 22:15:33 20° SSE
Cosmos 1271 Rocket 3.2 22:13:13 30° SE 22:14:23 40° E 22:17:48 10° NNE
Cosmos 1072 Rocket 4.4 22:08:13 10° N 22:14:24 82° E 22:18:23 23° SSE
Cosmos 1707 Rocket 3.6 22:12:25 21° SSW 22:15:14 74° W 22:19:34 10° N
Cosmos 1844 3.7 22:16:09 21° S 22:19:49 62° ESE 22:25:18 10° NE
Cosmos 2228 Rocket 3.2 22:18:25 21° SSW 22:21:18 73° W 22:25:44 10° N
Cosmos 1703 3.9 22:21:36 19° SW 22:23:45 42° WNW 22:27:06 10° N
Cosmos 1733 Rocket 3.9 22:21:12 10° NNW 22:25:20 42° W 22:27:50 21° SSW
Aureole 3 Rocket 2.9 22:26:01 10° NNW 22:29:16 60° W 22:30:59 30° SSW
SL-4 R/B 2.0 22:26:26 10° WSW 22:30:35 79° NNW 22:34:35 10° ENE
NOSS 2-1 (D) 3.3 22:28:09 10° NW 22:31:37 77° NE 22:34:09 24° SE
Cosmos 676 Rocket 4.4 22:32:07 27° SSE 22:34:40 47° ESE 22:39:41 10° NNE
SL-16 R/B 4.5 22:35:23 10° WNW 22:37:17 12° W 22:39:10 10° WSW
Okean 1-7 3.1 22:35:17 25° SSW 22:37:35 65° W 22:41:43 10° N
Cosmos 407 Rocket 4.0 22:33:47 11° SW 22:38:39 55° WNW 22:43:41 10° NNE
Cosmos 540 Rocket 3.9 22:34:03 10° NNW 22:38:59 49° WSW 22:41:36 26° SSW
ATLAS 3B R/B 3.7 22:32:18 10° NW 22:40:01 52° NE 22:47:31 10° ESE
Cosmos 2263 Rocket 4.3 22:36:39 10° W 22:41:25 27° NW 22:46:12 10° NNE
ALOS 2 2.6 22:39:35 30° SSE 22:41:43 82° ENE 22:46:08 10° NNW
Meteor 1-24 Rocket 4.1 22:43:34 26° SSE 22:46:57 59° E 22:52:43 10° NNE
Cosmos 1833 Rocket 3.7 22:42:00 10° NNW 22:47:20 41° NE 22:52:21 11° ESE
USA 305 4.0 22:44:17 10° WNW 22:47:23 30° N 22:49:46 10° ENE
Cosmos 1908 Rocket 3.6 22:44:33 10° NNW 22:48:55 75° W 22:50:55 32° S
ASTEX 1 4.2 22:45:41 10° N 22:50:25 45° WNW 22:53:49 18° SW
Cosmos 1892 4.2 22:50:32 14° WSW 22:52:10 21° WNW 22:54:33 10° NNW
Tsikada Rocket 4.2 22:49:22 25° SSE 22:52:59 60° E 22:59:09 10° NNE
Cosmos 1954 Rocket 3.9 22:52:57 24° SSW 22:56:08 88° ESE 23:01:22 10° NNE
Cosmos 1464 Rocket 4.4 22:52:38 10° NNW 22:58:44 54° W 23:02:34 23° SSW
Cosmos 2251 Rocket 4.0 22:54:48 15° SW 22:59:10 59° WNW 23:04:30 10° NNE
NOSS 3-1 (A) 4.1 22:52:45 10° NW 22:59:51 64° SW 23:05:38 22° SSE
NOSS 2-1 (C) 3.3 22:57:14 10° NW 23:00:44 64° SW 23:02:30 33° SSE
Cosmos 1190 Rocket 4.2 22:59:09 19° SW 23:02:57 68° WNW 23:08:14 10° NNE
USA 307 2.8 22:59:30 10° WSW 23:03:06 70° NNW 23:07:05 10° ENE
Cosmos 841 Rocket 3.4 22:58:11 10° NNW 23:03:28 84° WSW 23:06:15 28° SSE
Landsat 5 3.8 23:00:11 10° N 23:04:23 61° WNW 23:06:35 26° SW
ATLAS 2AS CENTAUR R/B 2.8 22:59:50 21° SSW 23:04:44 64° SE 23:11:35 10° NE
SeaSat 1 2.9 23:01:31 18° SE 23:05:02 59° NE 23:09:52 10° NNW
SJ 16-02 1.3 23:04:19 34° S 23:06:02 64° ESE 23:10:19 10° NNE
BREEZE-M DEB (TANK) 4.5 23:05:40 18° SE 23:06:41 20° ESE 23:12:39 10° ENE
Cosmos 2034 Rocket 4.1 23:01:39 10° NNW 23:07:51 67° W 23:11:34 25° S
Spot 4 4.4 23:05:39 27° SSW 23:07:57 47° W 23:12:38 10° NNW
NOSS 2-1 (E) 3.4 23:05:10 10° NW 23:08:43 61° SW 23:10:27 33° SSE
TIMED 4.5 23:10:22 35° S 23:12:01 66° ESE 23:16:17 10° NNE
Meteor 2-5 Rocket 3.8 23:10:07 27° S 23:13:35 86° E 23:19:34 10° NNE
Spot 1 4.4 23:13:28 10° NNE 23:18:28 88° WNW 23:21:11 28° SSW
CZ-2C R/B 4.1 23:15:41 10° ESE 23:20:14 31° ENE 23:24:54 10° N
Cosmos 1943 Rocket 4.1 23:20:08 12° SE 23:22:32 16° E 23:25:43 10° ENE
Cosmos 1300 Rocket 3.7 23:18:28 10° NNW 23:22:51 64° W 23:24:42 33° SSW
Cosmos 1850 Rocket 4.4 23:21:08 29° SSE 23:23:25 48° ESE 23:28:23 10° NNE
Cosmos 2082 Rocket 4.2 23:19:00 10° NNW 23:23:41 25° NE 23:28:21 10° E
ARIANE 5 R/B 4.3 23:23:38 17° SW 23:25:36 23° W 23:29:09 10° NW
USA 59 Rocket 0.7 23:24:06 10° WNW 23:27:32 36° SW 23:28:35 32° SSW
Cosmos 304 Rocket 4.1 23:26:36 31° SSE 23:28:33 51° ESE 23:33:10 10° NNE
Cosmos 2278 Rocket 3.8 23:27:24 15° SE 23:29:58 21° E 23:34:03 10° NE
Cosmos 968 Rocket 3.6 23:33:29 30° S 23:36:01 65° ESE 23:41:14 10° NNE
Cosmos 1634 Rocket 4.0 23:30:56 10° NNW 23:37:11 73° W 23:40:48 26° S
PSLV R/B 4.2 23:38:14 10° N 23:42:27 50° WNW 23:44:49 24° SW
Okean 2 Rocket 4.3 23:38:39 10° N 23:42:48 36° ENE 23:45:45 17° SE
Cosmos 1606 2.2 23:40:15 10° NNW 23:43:16 61° W 23:43:44 52° SW
OPS 8737 4.4 23:42:44 10° NW 23:45:37 46° SW 23:45:37 46° SW
Cosmos 1378 Rocket 4.2 23:44:46 27° SSE 23:46:44 46° E 23:50:55 10° NNE
Cosmos 1782 Rocket 4.5 23:44:17 10° NNW 23:48:21 37° W 23:50:08 26° SW
SL-12 R/B(2) 4.4 23:42:37 17° SW 23:49:21 86° SE 23:59:20 10° NE
SL-24 R/B - RUBIN 2 3.6 23:44:35 10° NW 23:49:35 84° SW 23:52:24 23° SE
Cosmos 1844 Rocket 4.2 23:44:35 10° WSW 23:49:38 32° NW 23:54:45 10° NNE
Timation 2 Rocket 4.2 23:50:55 26° S 23:54:04 52° ESE 23:59:52 10° NE
